| time (UTC) | temp F | wind direction | speed MPH | gust MPH | rain 1hr in | rain 24hr in | rain mn in | humidity % | barometer mb |
| 20260509024306 | 52 | 327 | 2.0 | 4.0 | 0.00 | 0.11 | 0.11 | 96 | 1009.6 |
| 20260509023803 | 52 | 17 | 2.0 | 8.0 | 0.00 | 0.11 | 0.11 | 96 | 1009.5 |
| 20260509023300 | 52 | 38 | 2.0 | 5.0 | 0.00 | 0.11 | 0.11 | 96 | 1009.5 |
| 20260509022756 | 52 | 308 | 2.0 | 4.0 | 0.00 | 0.11 | 0.11 | 97 | 1009.4 |
| 20260509022254 | 52 | 36 | 4.0 | 4.0 | 0.00 | 0.11 | 0.11 | 97 | 1009.3 |
| 20260509021751 | 52 | 318 | 2.0 | 2.0 | 0.00 | 0.11 | 0.11 | 97 | 1009.2 |
| 20260509021248 | 52 | 84 | 3.0 | 4.0 | 0.00 | 0.11 | 0.11 | 97 | 1009.5 |
| 20260509020746 | 52 | 344 | 2.0 | 3.0 | 0.00 | 0.11 | 0.11 | 97 | 1009.4 |
| 20260509020243 | 52 | 29 | 3.0 | 4.0 | 0.00 | 0.11 | 0.11 | 97 | 1009.2 |
| 20260509015741 | 52 | 298 | 0.0 | 3.0 | 0.00 | 0.11 | 0.11 | 97 | 1009.1 |
| 20260509015239 | 51 | 260 | 2.0 | 4.0 | 0.00 | 0.11 | 0.11 | 97 | 1009.3 |
| 20260509014735 | 52 | 331 | 2.0 | 4.0 | 0.00 | 0.11 | 0.11 | 97 | 1009.2 |
| 20260509014232 | 52 | 307 | 2.0 | 4.0 | 0.00 | 0.11 | 0.11 | 97 | 1009.2 |
| 20260509013729 | 52 | 327 | 0.0 | 3.0 | 0.00 | 0.11 | 0.11 | 97 | 1009.3 |
| 20260509013224 | 52 | 63 | 2.0 | 4.0 | 0.00 | 0.11 | 0.11 | 97 | 1009.2 |
| 20260509012721 | 52 | 11 | 3.0 | 6.0 | 0.00 | 0.11 | 0.11 | 97 | 1009.3 |
| 20260509012218 | 52 | 347 | 2.0 | 6.0 | 0.00 | 0.11 | 0.11 | 97 | 1009.4 |
| 20260509011716 | 52 | 6 | 0.0 | 4.0 | 0.00 | 0.11 | 0.11 | 97 | 1009.4 |
| 20260509011213 | 52 | 356 | 0.0 | 4.0 | 0.00 | 0.11 | 0.11 | 97 | 1009.2 |
| 20260509010711 | 51 | 259 | 3.0 | 4.0 | 0.00 | 0.11 | 0.11 | 97 | 1009.3 |
| 20260509010207 | 51 | 19 | 2.0 | 4.0 | 0.00 | 0.11 | 0.11 | 97 | 1008.9 |
| 20260509005704 | 51 | 347 | 1.0 | 3.0 | 0.00 | 0.11 | 0.11 | 97 | 1009.3 |
| 20260509005201 | 51 | 238 | 2.0 | 4.0 | 0.00 | 0.11 | 0.11 | 97 | 1009.3 |
| 20260509004656 | 51 | 328 | 0.0 | 3.0 | 0.00 | 0.11 | 0.11 | 97 | 1009.3 |
| 20260509004154 | 51 | 59 | 3.0 | 5.0 | 0.00 | 0.11 | 0.11 | 97 | 1009.1 |
| 20260509003652 | 51 | 248 | 1.0 | 4.0 | 0.00 | 0.11 | 0.11 | 96 | 1009.3 |
| 20260509003149 | 51 | 283 | 0.0 | 2.0 | 0.00 | 0.11 | 0.11 | 96 | 1009.2 |
| 20260509002646 | 51 | 12 | 3.0 | 6.0 | 0.00 | 0.11 | 0.11 | 97 | 1009.3 |
| 20260509002143 | 51 | 32 | 4.0 | 5.0 | 0.00 | 0.11 | 0.11 | 97 | 1009.4 |
| 20260509001641 | 51 | 168 | 2.0 | 5.0 | 0.00 | 0.11 | 0.11 | 97 | 1009.4 |
| 20260509001136 | 51 | 16 | 2.0 | 3.0 | 0.00 | 0.11 | 0.11 | 96 | 1009.3 |
| 20260509000635 | 51 | 302 | 1.0 | 4.0 | 0.02 | 0.11 | 0.11 | 96 | 1009.3 |
| 20260509000131 | 51 | 244 | 4.0 | 4.0 | 0.00 | 0.11 | 0.11 | 96 | 1009.3 |
| 20260508235629 | 51 | 345 | 2.0 | 3.0 | 0.02 | 0.11 | 0.11 | 96 | 1009.3 |
| 20260508235125 | 51 | 63 | 3.0 | 5.0 | 0.02 | 0.11 | 0.11 | 96 | 1009.3 |
| 20260508234623 | 51 | 347 | 2.0 | 4.0 | 0.02 | 0.11 | 0.11 | 96 | 1009.3 |
| 20260508234119 | 51 | 271 | 2.0 | 4.0 | 0.02 | 0.11 | 0.11 | 96 | 1009.4 |
| 20260508233619 | 51 | 37 | 0.0 | 4.0 | 0.00 | 0.10 | 0.10 | 96 | 1009.5 |
| 20260508233116 | 51 | 57 | 0.0 | 2.0 | 0.02 | 0.10 | 0.10 | 96 | 1009.3 |
| 20260508232613 | 51 | 351 | 1.0 | 3.0 | 0.00 | 0.10 | 0.10 | 96 | 1009.3 |
| 20260508232109 | 51 | 0 | 1.0 | 3.0 | 0.02 | 0.10 | 0.10 | 95 | 1009.0 |
| 20260508231607 | 52 | 356 | 1.0 | 3.0 | 0.02 | 0.10 | 0.10 | 95 | 1009.2 |
| 20260508231104 | 51 | 68 | 0.0 | 5.0 | 0.02 | 0.09 | 0.09 | 95 | 1009.2 |
| 20260508230600 | 51 | 311 | 0.0 | 2.0 | 0.07 | 0.09 | 0.09 | 95 | 1009.1 |
| 20260508230057 | 51 | 3 | 1.0 | 3.0 | 0.07 | 0.09 | 0.09 | 95 | 1009.1 |
| 20260508225555 | 51 | 276 | 0.0 | 2.0 | 0.05 | 0.08 | 0.08 | 95 | 1009.3 |
| 20260508225051 | 51 | 81 | 0.0 | 4.0 | 0.07 | 0.08 | 0.08 | 95 | 1009.4 |
| 20260508224549 | 52 | 139 | 0.0 | 4.0 | 0.05 | 0.07 | 0.07 | 94 | 1009.4 |
| 20260508224046 | 52 | 13 | 1.0 | 2.0 | 0.02 | 0.07 | 0.07 | 94 | 1009.6 |
| 20260508223544 | 52 | 54 | 0.0 | 2.0 | 0.07 | 0.07 | 0.07 | 94 | 1009.6 |
| 20260508223041 | 52 | 320 | 0.0 | 5.0 | 0.05 | 0.06 | 0.06 | 94 | 1009.8 |
| 20260508222538 | 52 | 57 | 1.0 | 5.0 | 0.07 | 0.06 | 0.06 | 93 | 1009.6 |
| 20260508222035 | 52 | 262 | 2.0 | 2.0 | 0.09 | 0.05 | 0.05 | 92 | 1009.4 |
| 20260508221531 | 52 | 70 | 2.0 | 3.0 | 0.05 | 0.04 | 0.04 | 92 | 1009.6 |
| 20260508221027 | 52 | 11 | 1.0 | 4.0 | 0.00 | 0.03 | 0.03 | 92 | 1009.4 |
| 20260508220524 | 52 | 46 | 3.0 | 5.0 | 0.05 | 0.03 | 0.03 | 91 | 1009.3 |
| 20260508220020 | 52 | 27 | 3.0 | 6.0 | 0.07 | 0.03 | 0.03 | 91 | 1009.3 |
| 20260508215517 | 52 | 35 | 0.0 | 4.0 | 0.05 | 0.02 | 0.02 | 90 | 1009.4 |
| 20260508215014 | 53 | 33 | 4.0 | 4.0 | 0.05 | 0.02 | 0.02 | 89 | 1009.5 |
| 20260508214511 | 53 | 31 | 3.0 | 5.0 | 0.07 | 0.02 | 0.02 | 88 | 1009.5 |
| 20260508214007 | 53 | 33 | 3.0 | 5.0 | 0.05 | 0.01 | 0.01 | 87 | 1009.6 |
| 20260508213505 | 53 | 11 | 2.0 | 6.0 | 0.02 | 0.00 | 0.00 | 86 | 1009.5 |
| 20260508213000 | 53 | 333 | 2.0 | 4.0 | 0.00 | 0.00 | 0.00 | 85 | 1009.4 |
| 20260508212457 | 53 | 32 | 3.0 | 4.0 | 0.00 | 0.00 | 0.00 | 85 | 1009.3 |
| 20260508211953 | 53 | 56 | 3.0 | 4.0 | 0.00 | 0.00 | 0.00 | 86 | 1009.2 |
| 20260508211449 | 53 | 39 | 2.0 | 4.0 | 0.00 | 0.00 | 0.00 | 85 | 1009.1 |
| 20260508210946 | 53 | 57 | 2.0 | 8.0 | 0.00 | 0.00 | 0.00 | 84 | 1009.1 |
| 20260508210443 | 53 | 20 | 4.0 | 6.0 | 0.00 | 0.00 | 0.00 | 83 | 1009.4 |
| 20260508205939 | 54 | 18 | 6.0 | 6.0 | 0.00 | 0.00 | 0.00 | 83 | 1009.4 |
| 20260508205436 | 54 | 355 | 2.0 | 7.0 | 0.00 | 0.00 | 0.00 | 83 | 1009.8 |
| 20260508204932 | 54 | 27 | 2.0 | 6.0 | 0.00 | 0.00 | 0.00 | 83 | 1009.5 |
| 20260508204430 | 53 | 4 | 2.0 | 4.0 | 0.00 | 0.00 | 0.00 | 83 | 1009.4 |
| 20260508203925 | 54 | 5 | 3.0 | 6.0 | 0.00 | 0.00 | 0.00 | 84 | 1009.8 |
| 20260508203422 | 54 | 8 | 3.0 | 10.0 | 0.00 | 0.00 | 0.00 | 84 | 1010.0 |
| 20260508202917 | 54 | 35 | 5.0 | 10.0 | 0.00 | 0.00 | 0.00 | 83 | 1009.8 |
| 20260508202415 | 54 | 301 | 4.0 | 10.0 | 0.00 | 0.00 | 0.00 | 84 | 1009.9 |
| 20260508201912 | 54 | 12 | 2.0 | 6.0 | 0.00 | 0.00 | 0.00 | 84 | 1010.0 |
| 20260508201409 | 54 | 27 | 6.0 | 6.0 | 0.00 | 0.00 | 0.00 | 84 | 1010.3 |
| 20260508200905 | 54 | 29 | 8.0 | 10.0 | 0.00 | 0.00 | 0.00 | 83 | 1010.1 |
| 20260508200402 | 54 | 15 | 3.0 | 9.0 | 0.00 | 0.00 | 0.00 | 82 | 1010.3 |
| 20260508195857 | 55 | 339 | 4.0 | 9.0 | 0.00 | 0.00 | 0.00 | 81 | 1010.5 |
| 20260508195354 | 55 | 24 | 8.0 | 13.0 | 0.00 | 0.00 | 0.00 | 78 | 1010.7 |
| 20260508194851 | 56 | 296 | 5.0 | 8.0 | 0.00 | 0.00 | 0.00 | 77 | 1010.3 |
| 20260508194348 | 56 | 26 | 7.0 | 10.0 | 0.00 | 0.00 | 0.00 | 76 | 1010.7 |
| 20260508193845 | 57 | 323 | 4.0 | 10.0 | 0.00 | 0.00 | 0.00 | 75 | 1010.4 |
| 20260508193342 | 58 | 27 | 5.0 | 9.0 | 0.00 | 0.00 | 0.00 | 75 | 1010.4 |
| 20260508192838 | 58 | 276 | 4.0 | 6.0 | 0.00 | 0.00 | 0.00 | 73 | 1010.3 |
| 20260508192335 | 58 | 357 | 5.0 | 9.0 | 0.00 | 0.00 | 0.00 | 72 | 1010.5 |
| 20260508191832 | 59 | 339 | 2.0 | 9.0 | 0.00 | 0.00 | 0.00 | 73 | 1010.7 |
| 20260508191329 | 60 | 285 | 4.0 | 6.0 | 0.00 | 0.00 | 0.00 | 70 | 1010.7 |
| 20260508190826 | 60 | 22 | 6.0 | 7.0 | 0.00 | 0.00 | 0.00 | 70 | 1010.5 |
| 20260508190323 | 60 | 12 | 5.0 | 8.0 | 0.00 | 0.00 | 0.00 | 70 | 1010.7 |
| 20260508185819 | 60 | 4 | 3.0 | 7.0 | 0.00 | 0.00 | 0.00 | 69 | 1010.3 |
| 20260508185317 | 60 | 20 | 0.0 | 4.0 | 0.00 | 0.00 | 0.00 | 69 | 1010.7 |
| 20260508184814 | 60 | 13 | 5.0 | 6.0 | 0.00 | 0.00 | 0.00 | 70 | 1010.8 |
| 20260508184311 | 61 | 5 | 7.0 | 10.0 | 0.00 | 0.00 | 0.00 | 68 | 1010.8 |
| 20260508183808 | 59 | 5 | 5.0 | 10.0 | 0.00 | 0.00 | 0.00 | 70 | 1010.9 |
| 20260508183305 | 60 | 5 | 3.0 | 7.0 | 0.00 | 0.00 | 0.00 | 68 | 1010.9 |
| 20260508182800 | 61 | 11 | 10.0 | 11.0 | 0.00 | 0.00 | 0.00 | 67 | 1010.9 |
| 20260508182257 | 61 | 37 | 4.0 | 12.0 | 0.00 | 0.00 | 0.00 | 70 | 1010.9 |
| 20260508181753 | 60 | 41 | 4.0 | 6.0 | 0.00 | 0.00 | 0.00 | 69 | 1011.0 |
| 20260508181250 | 60 | 32 | 6.0 | 10.0 | 0.00 | 0.00 | 0.00 | 70 | 1011.1 |
| 20260508180747 | 60 | 35 | 7.0 | 8.0 | 0.00 | 0.00 | 0.00 | 70 | 1011.2 |
| 20260508180244 | 58 | 24 | 7.0 | 7.0 | 0.00 | 0.00 | 0.00 | 71 | 1011.1 |
| 20260508175740 | 59 | 12 | 6.0 | 11.0 | 0.00 | 0.00 | 0.00 | 69 | 1011.4 |
| 20260508175237 | 59 | 9 | 8.0 | 9.0 | 0.00 | 0.00 | 0.00 | 72 | 1011.4 |
| 20260508174735 | 59 | 343 | 2.0 | 9.0 | 0.00 | 0.00 | 0.00 | 70 | 1011.3 |
| 20260508174232 | 60 | 17 | 4.0 | 10.0 | 0.00 | 0.00 | 0.00 | 72 | 1011.6 |
| 20260508173728 | 59 | 22 | 6.0 | 8.0 | 0.00 | 0.00 | 0.00 | 71 | 1011.8 |
| 20260508173224 | 59 | 359 | 6.0 | 10.0 | 0.00 | 0.00 | 0.00 | 71 | 1011.6 |
| 20260508172721 | 58 | 32 | 7.0 | 8.0 | 0.00 | 0.00 | 0.00 | 71 | 1011.8 |
| 20260508172218 | 59 | 0 | 5.0 | 10.0 | 0.00 | 0.00 | 0.00 | 74 | 1011.5 |
| 20260508171715 | 58 | 1 | 4.0 | 11.0 | 0.00 | 0.00 | 0.00 | 70 | 1011.7 |
| 20260508171211 | 58 | 320 | 3.0 | 6.0 | 0.00 | 0.00 | 0.00 | 70 | 1012.0 |
| 20260508170708 | 58 | 14 | 8.0 | 8.0 | 0.00 | 0.00 | 0.00 | 69 | 1011.7 |
| 20260508170206 | 58 | 294 | 1.0 | 5.0 | 0.00 | 0.00 | 0.00 | 70 | 1011.8 |
| 20260508165702 | 58 | 316 | 2.0 | 4.0 | 0.00 | 0.00 | 0.00 | 70 | 1012.0 |
| 20260508165200 | 58 | 317 | 2.0 | 3.0 | 0.00 | 0.00 | 0.00 | 69 | 1012.0 |
| 20260508164656 | 58 | 348 | 5.0 | 9.0 | 0.00 | 0.00 | 0.00 | 68 | 1012.1 |
| 20260508164152 | 58 | 292 | 4.0 | 10.0 | 0.00 | 0.00 | 0.00 | 68 | 1012.0 |
| 20260508163651 | 60 | 337 | 6.0 | 10.0 | 0.00 | 0.00 | 0.00 | 67 | 1012.1 |
| 20260508163148 | 59 | 334 | 4.0 | 9.0 | 0.00 | 0.00 | 0.00 | 68 | 1011.8 |
| 20260508162643 | 58 | 3 | 4.0 | 8.0 | 0.00 | 0.00 | 0.00 | 68 | 1012.1 |
| 20260508162140 | 59 | 356 | 3.0 | 8.0 | 0.00 | 0.00 | 0.00 | 66 | 1012.1 |
| 20260508161637 | 60 | 16 | 3.0 | 4.0 | 0.00 | 0.00 | 0.00 | 67 | 1012.2 |
| 20260508161135 | 60 | 8 | 3.0 | 3.0 | 0.00 | 0.00 | 0.00 | 66 | 1011.8 |
| 20260508160633 | 59 | 119 | 2.0 | 5.0 | 0.00 | 0.00 | 0.00 | 68 | 1012.2 |
| 20260508160130 | 59 | 340 | 5.0 | 5.0 | 0.00 | 0.00 | 0.00 | 68 | 1012.3 |
| 20260508155627 | 59 | 89 | 3.0 | 4.0 | 0.00 | 0.00 | 0.00 | 69 | 1012.1 |
| 20260508155124 | 58 | 299 | 2.0 | 6.0 | 0.00 | 0.00 | 0.00 | 69 | 1012.1 |
| 20260508154621 | 58 | 338 | 4.0 | 9.0 | 0.00 | 0.00 | 0.00 | 67 | 1012.4 |
| 20260508154118 | 59 | 353 | 3.0 | 7.0 | 0.00 | 0.00 | 0.00 | 68 | 1012.2 |
| 20260508153615 | 58 | 345 | 2.0 | 4.0 | 0.00 | 0.00 | 0.00 | 69 | 1012.2 |
| 20260508153111 | 57 | 319 | 2.0 | 3.0 | 0.00 | 0.00 | 0.00 | 70 | 1012.1 |
| 20260508152608 | 56 | 318 | 2.0 | 7.0 | 0.00 | 0.00 | 0.00 | 69 | 1012.2 |
| 20260508152103 | 57 | 24 | 2.0 | 7.0 | 0.00 | 0.00 | 0.00 | 71 | 1012.1 |
| 20260508151601 | 57 | 4 | 3.0 | 7.0 | 0.00 | 0.00 | 0.00 | 69 | 1012.0 |
| 20260508151058 | 59 | 325 | 3.0 | 5.0 | 0.00 | 0.00 | 0.00 | 67 | 1012.1 |
| 20260508150555 | 58 | 344 | 2.0 | 5.0 | 0.00 | 0.00 | 0.00 | 68 | 1012.0 |
| 20260508150050 | 58 | 21 | 2.0 | 5.0 | 0.00 | 0.00 | 0.00 | 67 | 1012.1 |
| 20260508145547 | 59 | 351 | 0.0 | 3.0 | 0.00 | 0.00 | 0.00 | 67 | 1012.4 |
| 20260508145044 | 59 | 319 | 2.0 | 4.0 | 0.00 | 0.00 | 0.00 | 68 | 1012.3 |
| 20260508144542 | 58 | 10 | 2.0 | 5.0 | 0.00 | 0.00 | 0.00 | 67 | 1012.2 |
| 20260508144039 | 57 | 356 | 2.0 | 6.0 | 0.00 | 0.00 | 0.00 | 68 | 1012.3 |
| 20260508143536 | 59 | 233 | 1.0 | 2.0 | 0.00 | 0.00 | 0.00 | 64 | 1012.2 |
| 20260508143032 | 59 | 12 | 2.0 | 3.0 | 0.00 | 0.00 | 0.00 | 65 | 1012.4 |
| 20260508142530 | 59 | 48 | 2.0 | 3.0 | 0.00 | 0.00 | 0.00 | 67 | 1012.2 |
| 20260508142026 | 59 | 318 | 2.0 | 3.0 | 0.00 | 0.00 | 0.00 | 66 | 1012.4 |
| 20260508141522 | 56 | 334 | 2.0 | 5.0 | 0.00 | 0.00 | 0.00 | 67 | 1012.3 |
| 20260508141020 | 57 | 350 | 2.0 | 6.0 | 0.00 | 0.00 | 0.00 | 67 | 1012.5 |
| 20260508140518 | 56 | 17 | 2.0 | 4.0 | 0.00 | 0.00 | 0.00 | 68 | 1012.4 |
| 20260508140014 | 56 | 34 | 0.0 | 5.0 | 0.00 | 0.00 | 0.00 | 68 | 1012.5 |
| 20260508135509 | 57 | 138 | 2.0 | 5.0 | 0.00 | 0.00 | 0.00 | 66 | 1012.5 |
| 20260508135006 | 57 | 43 | 2.0 | 6.0 | 0.00 | 0.00 | 0.00 | 66 | 1012.5 |
| 20260508134502 | 56 | 70 | 0.0 | 2.0 | 0.00 | 0.00 | 0.00 | 67 | 1012.2 |
| 20260508134000 | 56 | 112 | 4.0 | 4.0 | 0.00 | 0.00 | 0.00 | 66 | 1012.5 |
| 20260508133457 | 57 | 119 | 1.0 | 3.0 | 0.00 | 0.00 | 0.00 | 67 | 1012.7 |
| 20260508132953 | 56 | 330 | 0.0 | 3.0 | 0.00 | 0.00 | 0.00 | 70 | 1012.5 |
| 20260508132452 | 55 | 328 | 3.0 | 5.0 | 0.00 | 0.00 | 0.00 | 69 | 1012.5 |
| 20260508131948 | 54 | 67 | 2.0 | 4.0 | 0.00 | 0.00 | 0.00 | 71 | 1012.5 |
| 20260508131443 | 54 | 336 | 2.0 | 4.0 | 0.00 | 0.00 | 0.00 | 71 | 1012.6 |
| 20260508130940 | 53 | 340 | 2.0 | 4.0 | 0.00 | 0.00 | 0.00 | 71 | 1012.4 |
| 20260508130437 | 53 | 31 | 2.0 | 4.0 | 0.00 | 0.00 | 0.00 | 72 | 1012.6 |
| 20260508125933 | 54 | 20 | 5.0 | 6.0 | 0.00 | 0.00 | 0.00 | 70 | 1012.6 |
| 20260508125429 | 53 | 318 | 4.0 | 7.0 | 0.00 | 0.00 | 0.00 | 69 | 1012.4 |
| 20260508124927 | 52 | 344 | 0.0 | 3.0 | 0.00 | 0.00 | 0.00 | 71 | 1012.6 |
| 20260508124425 | 51 | 14 | 3.0 | 4.0 | 0.00 | 0.00 | 0.00 | 73 | 1012.4 |
| 20260508123922 | 51 | 3 | 2.0 | 4.0 | 0.00 | 0.00 | 0.00 | 73 | 1012.5 |
| 20260508123421 | 51 | 35 | 0.0 | 4.0 | 0.00 | 0.00 | 0.00 | 73 | 1012.5 |
| 20260508122917 | 51 | 317 | 4.0 | 4.0 | 0.00 | 0.00 | 0.00 | 73 | 1012.6 |
| 20260508122414 | 50 | 23 | 3.0 | 4.0 | 0.00 | 0.00 | 0.00 | 74 | 1012.6 |
| 20260508121911 | 50 | 13 | 3.0 | 6.0 | 0.00 | 0.00 | 0.00 | 75 | 1012.4 |
| 20260508121409 | 50 | 23 | 4.0 | 6.0 | 0.00 | 0.00 | 0.00 | 76 | 1012.3 |
| 20260508120906 | 50 | 345 | 1.0 | 4.0 | 0.00 | 0.00 | 0.00 | 77 | 1012.4 |
| 20260508120404 | 50 | 354 | 3.0 | 5.0 | 0.00 | 0.00 | 0.00 | 77 | 1012.5 |
| 20260508115901 | 49 | 23 | 3.0 | 5.0 | 0.00 | 0.00 | 0.00 | 79 | 1012.2 |
| 20260508115359 | 49 | 42 | 3.0 | 4.0 | 0.00 | 0.00 | 0.00 | 80 | 1012.2 |
| 20260508114855 | 49 | 50 | 4.0 | 5.0 | 0.00 | 0.00 | 0.00 | 81 | 1012.0 |
| 20260508114352 | 49 | 16 | 3.0 | 4.0 | 0.00 | 0.00 | 0.00 | 80 | 1012.1 |
| 20260508113849 | 49 | 7 | 2.0 | 4.0 | 0.00 | 0.00 | 0.00 | 80 | 1011.8 |
| 20260508113347 | 49 | 10 | 3.0 | 4.0 | 0.00 | 0.00 | 0.00 | 80 | 1012.0 |
| 20260508112844 | 48 | 60 | 2.0 | 4.0 | 0.00 | 0.00 | 0.00 | 80 | 1012.1 |
| 20260508112341 | 48 | 40 | 2.0 | 3.0 | 0.00 | 0.00 | 0.00 | 81 | 1011.8 |
| 20260508111837 | 48 | 23 | 2.0 | 3.0 | 0.00 | 0.00 | 0.00 | 80 | 1011.8 |
| 20260508111334 | 48 | 34 | 2.0 | 4.0 | 0.00 | 0.00 | 0.00 | 79 | 1011.6 |
| 20260508110831 | 49 | 22 | 3.0 | 4.0 | 0.00 | 0.00 | 0.00 | 79 | 1011.6 |
| 20260508110329 | 49 | 357 | 3.0 | 4.0 | 0.00 | 0.00 | 0.00 | 78 | 1011.8 |
| 20260508105829 | 49 | 8 | 4.0 | 5.0 | 0.00 | 0.00 | 0.00 | 77 | 1011.4 |
| 20260508105326 | 49 | 17 | 3.0 | 4.0 | 0.00 | 0.00 | 0.00 | 76 | 1011.7 |
| 20260508104822 | 49 | 10 | 2.0 | 4.0 | 0.00 | 0.00 | 0.00 | 76 | 1011.8 |
| 20260508104319 | 49 | 8 | 3.0 | 4.0 | 0.00 | 0.00 | 0.00 | 75 | 1011.5 |
| 20260508103817 | 49 | 359 | 4.0 | 5.0 | 0.00 | 0.00 | 0.00 | 75 | 1011.7 |
| 20260508103313 | 49 | 356 | 4.0 | 6.0 | 0.00 | 0.00 | 0.00 | 75 | 1011.4 |
| 20260508102811 | 48 | 108 | 3.0 | 6.0 | 0.00 | 0.00 | 0.00 | 76 | 1011.5 |
| 20260508102309 | 48 | 341 | 4.0 | 6.0 | 0.00 | 0.00 | 0.00 | 76 | 1011.5 |
| 20260508101806 | 48 | 14 | 4.0 | 6.0 | 0.00 | 0.00 | 0.00 | 76 | 1011.5 |
| 20260508101303 | 48 | 12 | 4.0 | 9.0 | 0.00 | 0.00 | 0.00 | 77 | 1011.4 |
| 20260508100801 | 47 | 357 | 5.0 | 6.0 | 0.00 | 0.00 | 0.00 | 80 | 1011.6 |
| 20260508100259 | 47 | 24 | 3.0 | 6.0 | 0.00 | 0.00 | 0.00 | 82 | 1011.6 |
| 20260508095754 | 47 | 9 | 3.0 | 5.0 | 0.00 | 0.00 | 0.00 | 83 | 1011.7 |
| 20260508095252 | 47 | 33 | 4.0 | 6.0 | 0.00 | 0.00 | 0.00 | 82 | 1011.7 |
| 20260508094749 | 46 | 12 | 3.0 | 5.0 | 0.00 | 0.00 | 0.00 | 83 | 1011.7 |
| 20260508094246 | 46 | 17 | 2.0 | 4.0 | 0.00 | 0.00 | 0.00 | 84 | 1011.5 |
| 20260508093743 | 45 | 45 | 3.0 | 4.0 | 0.00 | 0.00 | 0.00 | 85 | 1011.5 |
| 20260508093241 | 45 | 40 | 1.0 | 3.0 | 0.00 | 0.00 | 0.00 | 85 | 1011.6 |
| 20260508092737 | 45 | 34 | 2.0 | 2.0 | 0.00 | 0.00 | 0.00 | 85 | 1011.6 |
| 20260508092236 | 45 | 46 | 3.0 | 4.0 | 0.00 | 0.00 | 0.00 | 85 | 1011.8 |
| 20260508091733 | 45 | 350 | 2.0 | 4.0 | 0.00 | 0.00 | 0.00 | 84 | 1011.6 |
| 20260508091230 | 45 | 56 | 2.0 | 3.0 | 0.00 | 0.00 | 0.00 | 84 | 1011.8 |
| 20260508090728 | 45 | 18 | 2.0 | 5.0 | 0.00 | 0.00 | 0.00 | 84 | 1011.7 |
| 20260508090225 | 45 | 31 | 2.0 | 4.0 | 0.00 | 0.00 | 0.00 | 84 | 1011.8 |
| 20260508085721 | 45 | 23 | 2.0 | 5.0 | 0.00 | 0.00 | 0.00 | 84 | 1011.8 |
| 20260508085219 | 45 | 16 | 2.0 | 5.0 | 0.00 | 0.00 | 0.00 | 84 | 1011.8 |
| 20260508084714 | 45 | 27 | 3.0 | 5.0 | 0.00 | 0.00 | 0.00 | 84 | 1011.9 |
| 20260508084212 | 46 | 27 | 4.0 | 6.0 | 0.00 | 0.00 | 0.00 | 83 | 1011.9 |
| 20260508083709 | 46 | 70 | 3.0 | 6.0 | 0.00 | 0.00 | 0.00 | 83 | 1011.7 |
| 20260508083207 | 46 | 16 | 2.0 | 6.0 | 0.00 | 0.00 | 0.00 | 82 | 1011.9 |
| 20260508082701 | 46 | 40 | 3.0 | 7.0 | 0.00 | 0.00 | 0.00 | 82 | 1012.0 |
| 20260508082159 | 46 | 37 | 3.0 | 6.0 | 0.00 | 0.00 | 0.00 | 82 | 1012.0 |
| 20260508081657 | 46 | 30 | 3.0 | 5.0 | 0.00 | 0.00 | 0.00 | 83 | 1012.0 |
| 20260508081153 | 46 | 16 | 3.0 | 5.0 | 0.00 | 0.00 | 0.00 | 83 | 1012.1 |
| 20260508080650 | 46 | 27 | 4.0 | 4.0 | 0.00 | 0.00 | 0.00 | 83 | 1012.0 |
| 20260508080149 | 46 | 42 | 3.0 | 6.0 | 0.00 | 0.00 | 0.00 | 83 | 1012.0 |
| 20260508075644 | 46 | 40 | 3.0 | 4.0 | 0.00 | 0.00 | 0.00 | 83 | 1012.1 |
| 20260508075142 | 46 | 14 | 3.0 | 4.0 | 0.00 | 0.00 | 0.00 | 82 | 1011.9 |
| 20260508074639 | 46 | 21 | 3.0 | 6.0 | 0.00 | 0.00 | 0.00 | 82 | 1012.1 |
| 20260508074136 | 46 | 16 | 2.0 | 5.0 | 0.00 | 0.00 | 0.00 | 82 | 1011.9 |
| 20260508073633 | 46 | 17 | 3.0 | 6.0 | 0.00 | 0.00 | 0.00 | 81 | 1012.2 |
| 20260508073131 | 46 | 20 | 6.0 | 6.0 | 0.00 | 0.00 | 0.00 | 81 | 1012.1 |
| 20260508072627 | 46 | 37 | 3.0 | 8.0 | 0.00 | 0.00 | 0.00 | 81 | 1012.2 |
| 20260508072124 | 46 | 23 | 4.0 | 6.0 | 0.00 | 0.00 | 0.00 | 80 | 1012.3 |
| 20260508071621 | 47 | 332 | 2.0 | 5.0 | 0.00 | 0.00 | 0.00 | 79 | 1012.2 |
| 20260508071120 | 47 | 348 | 3.0 | 6.0 | 0.00 | 0.00 | 0.00 | 78 | 1012.1 |
| 20260508070617 | 48 | 341 | 2.0 | 7.0 | 0.00 | 0.00 | 0.00 | 76 | 1012.2 |
| 20260508070115 | 48 | 339 | 4.0 | 9.0 | 0.00 | 0.00 | 0.00 | 76 | 1012.4 |
| 20260508065612 | 48 | 34 | 4.0 | 7.0 | 0.00 | 0.00 | 0.00 | 75 | 1012.4 |
| 20260508065110 | 48 | 7 | 6.0 | 9.0 | 0.00 | 0.00 | 0.00 | 74 | 1012.2 |
| 20260508064607 | 49 | 304 | 4.0 | 10.0 | 0.00 | 0.00 | 0.00 | 73 | 1012.2 |
| 20260508064105 | 48 | 332 | 4.0 | 10.0 | 0.00 | 0.00 | 0.00 | 73 | 1012.1 |
| 20260508063603 | 48 | 358 | 3.0 | 7.0 | 0.00 | 0.00 | 0.00 | 72 | 1012.3 |
| 20260508063101 | 48 | 318 | 2.0 | 7.0 | 0.00 | 0.00 | 0.00 | 72 | 1012.3 |
| 20260508062558 | 48 | 359 | 4.0 | 6.0 | 0.00 | 0.00 | 0.00 | 73 | 1012.3 |
| 20260508062054 | 48 | 12 | 0.0 | 5.0 | 0.00 | 0.00 | 0.00 | 72 | 1012.2 |
| 20260508061552 | 48 | 41 | 5.0 | 7.0 | 0.00 | 0.00 | 0.00 | 72 | 1012.2 |
| 20260508061048 | 48 | 31 | 2.0 | 8.0 | 0.00 | 0.00 | 0.00 | 72 | 1012.3 |
| 20260508060545 | 48 | 50 | 4.0 | 4.0 | 0.00 | 0.00 | 0.00 | 73 | 1012.2 |
| 20260508060043 | 48 | 23 | 5.0 | 5.0 | 0.00 | 0.00 | 0.00 | 73 | 1012.3 |
| 20260508055538 | 48 | 47 | 2.0 | 4.0 | 0.00 | 0.00 | 0.00 | 73 | 1012.4 |
| 20260508055035 | 48 | 33 | 5.0 | 6.0 | 0.00 | 0.00 | 0.00 | 73 | 1012.4 |
| 20260508054532 | 48 | 50 | 2.0 | 5.0 | 0.00 | 0.00 | 0.00 | 72 | 1012.3 |
| 20260508054029 | 48 | 345 | 3.0 | 3.0 | 0.00 | 0.00 | 0.00 | 73 | 1012.6 |
| 20260508053526 | 48 | 61 | 4.0 | 4.0 | 0.00 | 0.00 | 0.00 | 72 | 1012.6 |
| 20260508053025 | 48 | 48 | 2.0 | 3.0 | 0.00 | 0.00 | 0.00 | 72 | 1012.6 |
| 20260508052521 | 48 | 308 | 2.0 | 4.0 | 0.00 | 0.00 | 0.00 | 72 | 1012.6 |
| 20260508052018 | 48 | 68 | 0.0 | 2.0 | 0.00 | 0.00 | 0.00 | 72 | 1012.8 |
| 20260508051514 | 48 | 329 | 0.0 | 2.0 | 0.00 | 0.00 | 0.00 | 72 | 1012.7 |
| 20260508051009 | 47 | 9 | 2.0 | 3.0 | 0.00 | 0.00 | 0.00 | 73 | 1012.9 |
| 20260508050506 | 48 | 57 | 1.0 | 3.0 | 0.00 | 0.00 | 0.00 | 73 | 1012.9 |
| 20260508050003 | 48 | 21 | 2.0 | 3.0 | 0.00 | 0.00 | 0.00 | 72 | 1012.9 |
| 20260508045500 | 48 | 38 | 1.0 | 3.0 | 0.00 | 0.00 | 0.00 | 71 | 1012.8 |
| 20260508044957 | 48 | 12 | 1.0 | 3.0 | 0.00 | 0.00 | 0.00 | 71 | 1012.8 |
| 20260508044454 | 48 | 343 | 2.0 | 4.0 | 0.00 | 0.00 | 0.00 | 71 | 1012.8 |
| 20260508043949 | 48 | 29 | 3.0 | 5.0 | 0.00 | 0.00 | 0.00 | 70 | 1012.7 |
| 20260508043447 | 48 | 54 | 3.0 | 4.0 | 0.00 | 0.00 | 0.00 | 70 | 1012.7 |
| 20260508042943 | 48 | 30 | 2.0 | 4.0 | 0.00 | 0.00 | 0.00 | 70 | 1012.8 |
| 20260508042441 | 48 | 13 | 3.0 | 5.0 | 0.00 | 0.00 | 0.00 | 70 | 1012.8 |
| 20260508041938 | 48 | 49 | 2.0 | 4.0 | 0.00 | 0.00 | 0.00 | 70 | 1012.9 |
| 20260508041434 | 48 | 22 | 2.0 | 4.0 | 0.00 | 0.00 | 0.00 | 69 | 1012.9 |
| 20260508040931 | 49 | 34 | 4.0 | 4.0 | 0.00 | 0.00 | 0.00 | 68 | 1012.8 |
| 20260508040429 | 49 | 23 | 3.0 | 6.0 | 0.00 | 0.00 | 0.00 | 68 | 1012.8 |
| 20260508035926 | 49 | 344 | 2.0 | 5.0 | 0.00 | 0.00 | 0.00 | 68 | 1012.8 |
| 20260508035423 | 49 | 353 | 4.0 | 6.0 | 0.00 | 0.00 | 0.00 | 68 | 1012.8 |
| 20260508034919 | 49 | 10 | 3.0 | 5.0 | 0.00 | 0.00 | 0.00 | 68 | 1012.8 |
| 20260508034417 | 49 | 14 | 4.0 | 6.0 | 0.00 | 0.00 | 0.00 | 67 | 1012.9 |
| 20260508033913 | 49 | 45 | 7.0 | 8.0 | 0.00 | 0.00 | 0.00 | 67 | 1013.0 |
| 20260508033412 | 50 | 24 | 5.0 | 7.0 | 0.00 | 0.00 | 0.00 | 65 | 1013.1 |
| 20260508032909 | 50 | 16 | 7.0 | 8.0 | 0.00 | 0.00 | 0.00 | 65 | 1012.9 |
| 20260508032406 | 50 | 347 | 4.0 | 6.0 | 0.00 | 0.00 | 0.00 | 66 | 1012.9 |
| 20260508031903 | 50 | 2 | 4.0 | 7.0 | 0.00 | 0.00 | 0.00 | 64 | 1013.0 |
| 20260508031400 | 50 | 24 | 4.0 | 6.0 | 0.00 | 0.00 | 0.00 | 65 | 1012.9 |
| 20260508030855 | 50 | 342 | 4.0 | 9.0 | 0.00 | 0.00 | 0.00 | 64 | 1013.1 |
| 20260508030353 | 50 | 12 | 9.0 | 9.0 | 0.00 | 0.00 | 0.00 | 64 | 1013.2 |
| 20260508025850 | 49 | 357 | 5.0 | 6.0 | 0.00 | 0.00 | 0.00 | 65 | 1013.1 |
| 20260508025347 | 49 | 336 | 4.0 | 6.0 | 0.00 | 0.00 | 0.00 | 67 | 1013.0 |
| 20260508024844 | 48 | 5 | 4.0 | 5.0 | 0.00 | 0.00 | 0.00 | 69 | 1013.2 |
| 20260508024340 | 48 | 5 | 2.0 | 3.0 | 0.00 | 0.00 | 0.00 | 70 | 1013.0 |